Wetterdaten: aktuell Montag, 18.06.2018 21:25
Datum Zeit Temp. 2m 5cm . Boden Feuchte A. Luftdruck Regen Wind Richtung Richtung Sonnenschein Helligkeit Solar Taupunkt Windchill
18.06.2018 21:25 18,6 C 11,4 C 71 % 1018,5 hPa 0,0 l/m 0,0 km/h (0 Bft) W-NW 295 0 min 631 lux 0 W/m 13,2 C 18,6 C
18.06.2018 21:21 18,7 C 11,4 C 70 % 1018,5 hPa 0,0 l/m 0,0 km/h (0 Bft) W-NW 295 0 min 769 lux 0 W/m 13,1 C 18,7 C
18.06.2018 21:16 18,9 C 11,4 C 69 % 1018,5 hPa 0,0 l/m 0,0 km/h (0 Bft) W-NW 295 0 min 1,06 klux 1 W/m 13,1 C 18,9 C
18.06.2018 21:10 19,3 C 11,4 C 68 % 1018,4 hPa 0,0 l/m 0,0 km/h (0 Bft) W-NW 295 0 min 1,35 klux 1 W/m 13,2 C 19,3 C
18.06.2018 21:05 19,8 C 11,5 C 68 % 1018,4 hPa 0,0 l/m 0,0 km/h (0 Bft) W-NW 295 0 min 1,85 klux 2 W/m 13,7 C 19,8 C
18.06.2018 21:01 20,0 C 11,4 C 67 % 1018,3 hPa 0,0 l/m 0,0 km/h (0 Bft) W-NW 295 0 min 2,59 klux 3 W/m 13,7 C 20,0 C
18.06.2018 20:55 20,2 C 11,4 C 67 % 1018,3 hPa 0,0 l/m 0,0 km/h (0 Bft) W-NW 295 0 min 3,09 klux 3 W/m 13,9 C 20,2 C
18.06.2018 20:50 20,2 C 11,4 C 67 % 1018,3 hPa 0,0 l/m 0,0 km/h (0 Bft) W-NW 295 0 min 3,59 klux 4 W/m 13,9 C 20,2 C
18.06.2018 20:45 20,4 C 11,4 C 66 % 1018,3 hPa 0,0 l/m 0,0 km/h (0 Bft) W-NW 295 0 min 4,57 klux 6 W/m 13,8 C 20,4 C
18.06.2018 20:40 20,6 C 11,4 C 67 % 1018,3 hPa 0,0 l/m 0,0 km/h (0 Bft) W-NW 295 0 min 5,50 klux 8 W/m 14,3 C 20,6 C
18.06.2018 20:36 20,6 C 11,4 C 67 % 1018,3 hPa 0,0 l/m 0,0 km/h (0 Bft) W-NW 295 0 min 5,07 klux 8 W/m 14,3 C 20,6 C
18.06.2018 20:30 20,7 C 11,4 C 67 % 1018,2 hPa 0,0 l/m 0,0 km/h (0 Bft) W-NW 295 0 min 4,38 klux 7 W/m 14,3 C 20,7 C
18.06.2018 20:25 20,6 C 11,4 C 66 % 1018,3 hPa 0,0 l/m 0,0 km/h (0 Bft) W-NW 295 5 min 9,5 klux 16 W/m 14,0 C 20,6 C
18.06.2018 20:20 20,4 C 11,4 C 66 % 1018,3 hPa 0,0 l/m 0,0 km/h (0 Bft) W-NW 295 0 min 8,70 klux 16 W/m 13,8 C 20,4 C
18.06.2018 20:15 20,4 C 11,4 C 66 % 1018,3 hPa 0,0 l/m 0,0 km/h (0 Bft) W-NW 295 0 min 3,22 klux 6 W/m 13,8 C 20,4 C
18.06.2018 20:11 20,3 C 11,4 C 65 % 1018,3 hPa 0,0 l/m 0,0 km/h (0 Bft) W-NW 295 0 min 3,59 klux 7 W/m 13,5 C 20,3 C
18.06.2018 20:05 20,4 C 11,4 C 64 % 1018,3 hPa 0,0 l/m 0,0 km/h (0 Bft) W-NW 295 0 min 4,12 klux 9 W/m 13,4 C 20,4 C
18.06.2018 20:00 20,5 C 11,4 C 64 % 1018,3 hPa 0,0 l/m 0,0 km/h (0 Bft) W-NW 295 0 min 4,62 klux 10 W/m 13,5 C 20,5 C
18.06.2018 19:56 20,5 C 11,4 C 63 % 1018,3 hPa 0,0 l/m 0,0 km/h (0 Bft) W-NW 295 0 min 5,01 klux 12 W/m 13,2 C 20,5 C
_ Min-Zeit 01:36 10:55 16:05 00:00 - 00:00 - - - - - 01:36 01:36
Minimum _ 12,5 C 7,7 C 54 % 1017,2 hPa - 0,0 km/h (0 Bft) - - - - - 9,3 C 12,5 C
_ Max-Zeit 16:00 18:50 05:35 09:30 00:00 00:00 - - 08:26 13:45 13:45 15:46 16:00
Maximum _ 23,1 C 11,5 C 84 % 1019,9 hPa 0,0 l/m 0,0 km/h
NW (0 Bft)
- - 6 min 107 klux 832 W/m 14,7 C 23,1 C
Durchschnitt _ 17,7 C 10,1 C 70 % 1018,7 hPa #0,0 l/m 0,0 km/h (0 Bft) - - - #4:16 h 25,7 klux 224 W/m 12,0 C 17,7 C
copyright (c) - www.lichtentanne-wetter.de